sat.trackr.live / text

‹ back to catalog

QIANFAN-95

NORAD 66037 · 2025-233E

PAYLOAD ACTIVE UNKNOWN

§ Identity

Operator
Country
PRC
Launch date
2025-10-17
Launch site
TAISC
Launch vehicle
Mass (kg)
RCS (m²)

External: N2YO · Heavens-Above · Gunter

§ Orbital elements

Epoch: 2026-05-24T23:08:08.050848Z

Period
106.59 min
Inclination
89.0024°
Eccentricity
0.0001990
Mean motion
13.51007248 rev/d
Perigee alt
1,067.1 km
Apogee alt
1,070.0 km
Semi-major
7,446.7 km
B*
1.7974e-4
RAAN
45.0055°
Arg perigee
69.1628°
Mean anomaly
290.9736°
Rev number
3,034

§ Raw data

QIANFAN-951 66037U 25233E   26144.96398207  .00000128  00000+0  17974-3 0  99992 66037  89.0024  45.0055 0001990  69.1628 290.9736 13.51007248 30344

JSON: /api/v1/satellites/66037 · /tle

For live sub-satellite position, see the globe view (requires WebGL).

§ Visibility from observer

Set your observer location to see the next 7 days of passes ≥ 10°. The values pass through the URL so the page stays shareable.

No JS? Fill the form by hand. The geolocation button needs JavaScript.